User: anonymous   Login
Location: Caltech
(34.1382°N, 118.1253°W)
Time: 05:30:48
(UTC-07:00)
Language:

Cosmos 1975 - Orbit

View from above orbital plane
View from above orbital plane
View from above satellite
View from above satellite

Ground track
Ground track

The orbit data is extracted from the following two-line orbital elements,

1 19573U 88093A   15216.24193532  .00000842  00000-0  60577-4 0  9990
2 19573 082.5217 285.6780 0016450 102.1595 258.1474 15.02839384457186
Epoch (UTC): 04 August 2015 05:48:23
Eccentricity: 0.0016450
inclination: 82.5217°
perigee height: 547 km
apogee height: 569 km
right ascension of ascending node: 285.6780°
argument of perigee: 102.1595°
revolutions per day: 15.02839384
mean anomaly at epoch: 258.1474°
orbit number at epoch: 45718

The dashed part of the orbit path shows where the satellite is in the earth's shadow,  

DLR